Location: Zagreb
(45.8000°N, 16.0000°E)
Time: 14:03:01
(UTC+02:00)

Transit 2A Rocket - Pass Details

Date: 17 August 2022
Orbit: 593 x 907 km, 66.7° (Epoch: 25 September)

Event Time Altitude Azimuth Distance (km) Brightness Sun altitude
Rises 02:30:17 0° 328° (NNW) 2,859 8.4 -27.3°
Reaches altitude 10° 02:32:30 10° 332° (NNW) 1,972 7.5 -27.2°
Enters shadow 02:36:33 63° 25° (NNE) 707 4.9 -26.9°
Maximum altitude 02:36:54 67° 55° (NE) 693 - -26.8°
Drops below altitude 10° 02:41:35 10° 138° (SE) 2,095 - -26.5°
Sets 02:44:00 0° 141° (SE) 3,056 - -26.3°
